Location: Berlise
(49.6641°N, 4.1077°E)
Time: 18:31:05
(UTC+00:00)

Cosmos 2279 Rocket - Pass Details

Date: 27 January 2021
Orbit: 964 x 979 km, 82.9° (Epoch: 27 February)

Event Time Altitude Azimuth Distance (km) Brightness Sun altitude
Rises 06:22:16 0° 201° (SSW) 3,662 7.0 -9.8°
Reaches altitude 10° 06:24:49 10° 206° (SSW) 2,721 6.3 -9.5°
Maximum altitude 06:30:56 57° 284° (WNW) 1,147 4.1 -8.5°
Drops below altitude 10° 06:37:08 10° 3° (N) 2,743 6.2 -7.6°
Sets 06:39:43 0° 8° (N) 3,695 6.9 -7.2°
